Location: Bottom School (historical)
(37.9078°N, 89.3593°W)
Time: 05:19:58
(UTC+00:00)

AO-7 - Visible Passes

Search period start: 21 March 2023 00:00
Search period end: 31 March 2023 00:00
Orbit: 1440 x 1458 km, 101.9° (Epoch: 20 March)

Date Brightness Start Highest point End Pass type
(mag) Time Alt. Az. Time Alt. Az. Time Alt. Az.
21 Mar ? 10:04:16 10° NNE 10:12:06 43° E 10:19:50 10° S visible
22 Mar ? 09:06:46 10° ENE 09:11:27 16° E 09:16:06 10° SE visible
22 Mar ? 10:56:43 10° NNE 11:05:07 88° ESE 11:13:26 10° SSW visible
23 Mar ? 09:57:21 10° NNE 10:04:59 38° E 10:12:31 10° SSE visible
24 Mar ? 09:00:25 10° ENE 09:04:16 14° E 09:08:04 10° ESE visible
24 Mar ? 10:49:40 10° NNE 10:58:04 81° ESE 11:06:22 10° SSW visible
25 Mar ? 09:50:27 10° NE 09:57:51 34° E 10:05:11 10° SSE visible
26 Mar ? 08:54:26 10° ENE 08:57:04 12° E 08:59:41 10° ESE visible
26 Mar ? 10:42:38 10° NNE 10:51:00 74° ESE 10:59:16 10° S visible
27 Mar ? 09:43:35 10° NE 09:50:43 31° E 09:57:46 10° SSE visible
28 Mar ? 10:35:37 10° NNE 10:43:55 67° ESE 10:52:09 10° S visible
29 Mar ? 09:36:46 10° NE 09:43:35 27° E 09:50:19 10° SSE visible
30 Mar ? 10:28:36 10° NNE 10:36:51 60° ESE 10:44:59 10° S visible
